Other Public Products
Issued by NWS Grand Forks, ND

Home | Current Version | Previous Version | Text Only | Print | Product List | Glossary On
Versions: 1 2 3 4 5 6 7 8 9 10 11 12 13 14 15 16 17 18 19 20 21 22 23 24 25 26 27 28 29 30 31 32 33 34 35 36 37 38 39 40 41 42 43 44 45 46 47 48 49 50
000
FPUS83 KFGF 261110
OPUFGF
PRAIRIE TO PINES WEATHER ROUNDUP
NATIONAL WEATHER SERVICE EASTERN NORTH DAKOTA/GRAND FORKS ND
500 AM CST WED NOV 26 2014

 **SATELLITE DATA USED TO AUGMENT SKY COVER AT AUTOMATED STATIONS**
 *****  WEATHER ACROSS EASTERN NORTH DAKOTA  *****

CITY           SKY/WX    TMP DP  RH WIND       PRES   REMARKS
GRAND FORKS    MOCLDY     0  -6  76 N16       30.30R WCI -20
GRAND FORKS AF CLOUDY    -1  -7  77 N15G24    30.31R WCI -21
GRAND CITY NWS   N/A      0 N/A N/A N14         N/A  WCI -19
BUXTON         NOT AVBL
DEVILS LAKE    CLOUDY     1 -13  51 N15       30.27R WCI -18
FARGO          CLOUDY    10   5  80 N18       30.23R WCI  -8
WAHPETON ARPT  CLOUDY    16  12  86 N17       30.16R WCI   0
$$

 *****  WEATHER ACROSS CENTRAL AND WESTERN NORTH DAKOTA  *****

CITY           SKY/WX    TMP DP  RH WIND       PRES   REMARKS
JAMESTOWN      PTCLDY     0  -4  83 NW9       30.24R WCI -15
BISMARCK       CLOUDY     8   2  76 N10       30.29R WCI  -6
MINOT          LGT SNOW   5   1  83 N6        30.28S FOG     WCI  -6
MINOT AFB      FLURRIES   6   3  87 N7        30.29S WCI  -6
GARRISON         N/A      7   2  80 NE6       30.25S WCI  -3
WILLISTON      LGT SNOW  15  10  80 N10       30.25S WCI   2
DICKINSON      CLOUDY    19  15  84 CALM      30.16F
HETTINGER      CLOUDY    21  17  84 NW8       30.19S WCI  11
$$

 *****  OTHER OBSERVATIONS NORTHEAST NORTH DAKOTA  *****

CITY           SKY/WX    TMP DP  RH WIND       PRES   REMARKS
WALHALLA         N/A     -2  -8  78 N14       30.37S WCI -21
LANGDON        CLOUDY    -2  -8  78 N13       30.26S WCI -21
CAVALIER       CLOUDY    -2  -8  78 N16       30.37R WCI -23
GRAFTON        CLOUDY    -2  -8  78 N17       30.34R WCI -24
CANDO          CLOUDY     0  -4  85 N8        30.30S WCI -15
FORT TOTTEN    NOT AVBL
ROLLA          FLURRIES  -2  -4  92 N12       30.28R WCI -20
RUGBY          CLOUDY     1  -2  85 NE6       30.29R WCI -10
 ***** THE ABOVE OBSERVATIONS ARE NON NWS ARE NOT QUALITY
        CONTROLLED AND MAY MIS-REPORT RAIN FOR SNOW...
$$

 *****  OTHER OBSERVATIONS SOUTHEAST NORTH DAKOTA *****

CITY           SKY/WX    TMP DP  RH WIND       PRES   REMARKS
COOPERSTOWN    NOT AVBL
VALLEY CITY    CLOUDY     5   0  78 N16       30.22R WCI -14
OAKES            N/A      9   5  85 N18       30.18R WCI -10
GWINNER        CLOUDY    12   9  85 N22       30.19R WCI  -7
BUFFALO        NOT AVBL
WYNDMERE         N/A     10   9  92 VRB16       N/A  WCI  -7
 ***** THE ABOVE OBSERVATIONS ARE NON NWS ARE NOT QUALITY
       CONTROLLED AND MAY MIS-REPORT RAIN FOR SNOW...
$$

  *****  WEATHER ACROSS NORTHERN MINNESOTA  *****

CITY           SKY/WX    TMP DP  RH WIND       PRES   REMARKS
FLAG ISLAND    CLEAR     -2  -6  84 N10       30.24R WCI -19
WARROAD        CLEAR      0  -6  78 NW5       30.25R WCI -10
ROSEAU         PTCLDY    -2  -8  78 N7        30.26R WCI -16
HALLOCK        PTCLDY    -6  -9  84 N16       30.33R WCI -28
THF RVR FALLS  MOCLDY     3   0  85 N14       30.23R WCI -15
HALSTAD          N/A      6   1  82 N18         N/A  WCI -14
FOSSTON        FLURRIES   9   5  85 N16       30.19R WCI  -9
BAUDETTE       CLEAR      4   0  83 N10       30.19R WCI -11
WASKISH        FLURRIES  10   7  85 N5        30.17R WCI   2
CROOKSTON      PTCLDY     1  -2  85 N15       30.27R WCI -18
$$
  *****  WEATHER ACROSS CENTRAL AND WEST MINNESOTA  *****

CITY           SKY/WX    TMP DP  RH WIND       PRES   REMARKS
BEMIDJI        MOCLDY    13   9  84 N7        30.13R WCI   3
PARK RAPIDS    LGT SNOW  17  14  88 N12       30.10R FOG     WCI   4
WADENA         LGT SNOW  18  14  86 N9        30.10R WCI   6
DETROIT LAKES  PTCLDY    18  14  86 N14       30.13R WCI   4
MOORHEAD       MIX PCPN  10   9  92 N23       30.21R WCI -10
FERGUS FALLS   MOCLDY    19  14  79 N6        30.15R HAZE    WCI  11
ELBOW LAKE     LGT SNOW  19  16  87 N10       30.10R WCI   7
MORRIS MN      LGT SNOW  21  18  86 N13       30.07R WCI   9
STAPLES        LGT SNOW  18  16  93 N7        30.09  WCI   8
WHEATON        LGT SNOW  18  16  93 N16       30.15R WCI   3
$$
  *****  WEATHER ELSEWHERE ACROSS MINNESOTA  *****

CITY           SKY/WX    TMP DP  RH WIND       PRES   REMARKS
DULUTH         LGT SNOW  19   9  65 N5        30.07R WCI  12
INTRNTL FALLS  CLOUDY    11   7  84 N7        30.15R WCI   0
ELY            CLOUDY    12   9  85 CALM      30.08S
CLOQUET        CLOUDY    19  14  79 N5        30.07R WCI  13
BRAINERD       LGT SNOW  18  14  84 N8        30.09S FOG     WCI   8
HIBBING        LGT SNOW  18  13  80 N6        30.09R WCI  10
ALEXANDRIA     LGT SNOW  19  15  84 N12       30.07R FOG     WCI   7
SAINT CLOUD    CLOUDY    24  16  71 NE6       30.06R WCI  17
MINNEAPOLIS    FLURRIES  24  15  68 E9        30.05R WCI  14
$$

  *****  WEATHER ACROSS SOUTH DAKOTA  *****

CITY           SKY/WX    TMP DP  RH WIND       PRES   REMARKS
SIOUX FALLS    LGT SNOW  29  27  92 N10       29.89R FOG     WCI  20
BROOKINGS      NOT AVBL
WATERTOWN      CLOUDY    20  16  84 N23       30.01R WCI   3
HURON          LGT SNOW  21  19  92 N23G31    30.08R FOG     WCI   5
SISSETON         N/A     16  14  92 N21       30.13R WCI  -1
ABERDEEN       MOCLDY    13   8  81 N22       30.18R WCI  -6
MITCHELL       LGT SNOW  29  27  92 N29G36    29.99R VSB 1   WCI  14
PIERRE         CLOUDY    21  16  81 N24G32    30.16R WCI   4
MOBRIDGE       CLOUDY    16  11  80 N17G24    30.20R WCI   0
RAPID CITY     CLOUDY    25  21  85 N14       30.17R WCI  13
$$

  *****  SOME WEATHER IN NEARBY STATES *****

CITY           SKY/WX    TMP DP  RH WIND       PRES   REMARKS
GLASGOW MT     CLOUDY    21  16  81 SE3       30.22S
GREAT FALLS MT LGT SNOW  29  28  96 CALM      30.13S FOG
CHEYENNE WY    FLURRIES  22  18  85 N9        30.13R WCI  12
SCOTTSBLUFF NE CLOUDY    31  25  78 NW10      30.15S WCI  22
OMAHA NE       CLOUDY    39  35  86 W15       29.85S
DES MOINES IA  LGT SNOW  30  27  88 SE12      29.88F VSB 3/4 WCI  20
DAVENPORT IA   CLOUDY    18  15  88 E8        30.07F WCI   8
CHICAGO IL     CLEAR     20  15  81 E5        30.14S WCI  13
EAU CLAIRE WI  CLOUDY    20  15  81 NE5       30.08R WCI  13
LA CROSSE WI   MOCLDY    19  14  81 E5        30.08S WCI  12
$$

  *****  SOME NATIONAL WEATHER *****

CITY           SKY/WX    TMP DP  RH WIND       PRES   REMARKS
LA GUARDIA NY  LGT RAIN  46  31  55 N12       30.12R
RALEIGH NC     RAIN      48  45  89 N10       29.91R VSB 1
ATLANTA GA     CLOUDY    46  32  58 NW7       30.00R
NEW ORLEANS LA CLEAR     40  35  83 CALM      30.23R
OKLAHOMA CITY  PTCLDY    41  28  60 W10G18    30.00R
ALBUQUERQUE NM PTCLDY    34   7  32 CALM      30.33S
SALT LAKE CITY CLEAR     39  28  64 S5        30.33F
LOS ANGELES CA CLEAR     55  30  38 E5        30.23F
BOISE ID       MOCLDY    46  38  73 CALM      30.30R
SEATTLE WA     CLOUDY    55  52  89 S10G20    30.19R
$$

*** WEATHER ACROSS MANITOBA...SASKATCHEWAN AND ONTARIO ***
                ***ONTARIO***

CITY           SKY/WX    TMP DP  RH WIND       PRES   REMARKS
GERALDTON      LGT SNOW   1  -2  85 N3        30.16R
THUNDER BAY    CLOUDY    14  10  85 NE5       30.15F WCI   6
SIOUX LOOKOUT  CRYSTALS  -8 -11  84 CALM      30.20R
TORONTO        MOCLDY    34  27  75 E3        30.21R
BIG TROUT LK   CLEAR    -24 -29  76 W5        30.22R WCI -38
PICKLE LAKE    CLEAR    -22 -29  69 SW5       30.20  WCI -36
DRYDEN         CLEAR     -4  -8  84 N6        30.19R WCI -16
KENORA         PTCLDY    -8 -11  84 N7        30.22R WCI -22
$$
                *** MANITOBA***

CITY           SKY/WX    TMP DP  RH WIND       PRES   REMARKS
BRANDON        MOCLDY    -4  -9  77 VRB2      30.36R
DAUPHIN        CLEAR    -22 -27  76 W8        30.41R WCI -41
ISLAND LAKE    NOT AVBL
PILOT MOUND      N/A     -4  -8  84 N10         N/A  WCI -21
THE PAS        CLEAR    -17 -22  76 W9        30.41R WCI -36
THOMPSON       NOT AVBL
WINNIPEG       CLEAR    -17 -22  76 N10       30.39R WCI -37
LYNN LAKE      CLEAR    -22 -27  76 NW7       30.31R WCI -39
CHURCHILL      CRYSTALS  -9 -15  77 NW17      30.19R BLWGSNOWWCI -33
GILLAM         MOCLDY   -18 -26  69 W10       30.26R WCI -39
$$
                ***SASKATCHEWAN***

CITY           SKY/WX    TMP DP  RH WIND       PRES   REMARKS
ESTEVAN        FLURRIES   5   0  78 N8        30.27R WCI  -8
KINDERSLEY     CLOUDY    10   7  85 E2        30.24S
LLOYDMINSTER   NOT AVBL
PRINCE ALBERT  NOT AVBL
REGINA         PTCLDY    -4  -6  92 NE7       30.31S WCI -18
YORKTON        CLEAR    -13 -17  84 W6        30.36R WCI -27


USA.gov is the U.S. government's official web portal to all federal, state and local government web resources and services.